[Iaude] MPEC N62: 2024 NB1 [a=0.84,e=0.22,i=19.0,H=23.7]
    mpec at cfa.harvard.edu 
    mpec at cfa.harvard.edu
       
    Fri Jul  5 13:31:00 EDT 2024
    
    
  
M.P.E.C. 2024-N62                                  Issued 2024 July 5, 17:29 UT
     The Minor Planet Electronic Circulars contain information on unusual
         minor planets, routine data on comets and natural satellites,
         and occasional editorial announcements.  They are published
    on behalf of Division F of the International Astronomical Union by the
          Minor Planet Center, Smithsonian Astrophysical Observatory,
                          Cambridge, MA 02138, U.S.A.
			  
             Prepared using the Tamkin Foundation Computer Network
                              MPC at CFA.HARVARD.EDU
            URL https://www.minorplanetcenter.net/    ISSN 1523-6714
                                    2024 NB1                                    
Observations:
     K24N01B* C2024 07 03.55034723 51 37.848+13 08 14.22         19.88wXEN062F52
     K24N01B  C2024 07 03.56283223 51 42.201+13 04 56.40         19.83wXEN062F52
     K24N01B  C2024 07 03.57530623 51 46.527+13 01 38.34         19.73wXEN062F52
     K24N01B hC2024 07 04.03338623 55 00.696+10 53 30.73         19.8 GVEN062J95
     K24N01B hC2024 07 04.04112323 55 03.898+10 51 18.11         19.8 GVEN062J95
     K24N01B hC2024 07 04.04943323 55 07.284+10 48 56.74               VEN062J95
     K24N01B 6C2024 07 04.09649 23 55 27.78 +10 36 05.3          19.9 GVEN062Z84
     K24N01B 6C2024 07 04.09803 23 55 28.38 +10 35 39.0          19.6 GVEN062Z84
     K24N01B 6C2024 07 04.09954 23 55 28.96 +10 35 13.0          19.6 GVEN062Z84
     K24N01B KB2024 07 04.34362523 57 18.04 +09 23 28.0          20.1 GVEN062V28
     K24N01B KB2024 07 04.34913523 57 20.29 +09 21 49.9          19.4 GVEN062V28
     K24N01B KC2024 07 04.45263 23 58 03.588+08 50 23.78         19.9 GVEN062U52
     K24N01B KC2024 07 04.45792 23 58 05.729+08 48 47.77         19.6 GVEN062U52
     K24N01B KC2024 07 04.46322 23 58 07.848+08 47 12.30         21.0 GVEN062U52
     K24N01B  C2024 07 04.58662223 59 03.216+08 10 18.56         19.81wXEN062F52
     K24N01B  C2024 07 04.59396223 59 06.056+08 08 02.79         19.86wXEN062F52
     K24N01B  C2024 07 04.60127523 59 08.891+08 05 46.85         20.17wXEN062F52
     K24N01B KC2024 07 05.00976400 02 24.59 +05 53 38.8          19.2 GVEN062L01
     K24N01B KC2024 07 05.01075200 02 25.03 +05 53 19.1          19.3 GVEN062L01
     K24N01B KC2024 07 05.01173900 02 25.48 +05 52 59.3          19.2 GVEN062L01
     K24N01B KC2024 07 05.01272600 02 25.95 +05 52 40.2          18.9 GVEN062L01
     K24N01B KC2024 07 05.01396000 02 26.49 +05 52 16.1          19.0 GVEN062L01
     K24N01B KB2024 07 05.02362300 02 31.98 +05 49 04.2          19.5 GXEN062I93
     K24N01B KB2024 07 05.02597900 02 33.06 +05 48 17.6          19.7 GXEN062I93
     K24N01B KB2024 07 05.02825900 02 34.10 +05 47 33.2          19.6 GXEN062I93
     K24N01B KB2024 07 05.04490 00 02 40.17 +05 42 02.9          19.9 RZEN062106
     K24N01B KB2024 07 05.04886 00 02 41.94 +05 40 44.3          19.2 RZEN062106
     K24N01B KB2024 07 05.05256 00 02 43.59 +05 39 30.8          19.5 RZEN062106
     K24N01B KB2024 07 05.05612 00 02 45.14 +05 38 20.0          19.5 RZEN062106
     K24N01B KB2024 07 05.07182000 02 52.69 +05 33 07.7                VEN062204
     K24N01B HB2024 07 05.08196000 02 57.17 +05 29 45.4          19.5 GVEN062204
     K24N01B 0B2024 07 05.18057300 03 38.513+05 00 24.32         19.4 VZEN062M49
     K24N01B 0B2024 07 05.18597500 03 40.719+04 58 35.18         19.8 VZEN062M49
     K24N01B 0B2024 07 05.19136100 03 42.920+04 56 45.41         19.8 VZEN062M49
Observer details:
106 Crni Vrh.  Observer H. Mikuz.  0.60-m f/3.3 reflector + CMO.
204 Schiaparelli Observatory.  Observer L. Buzzi.  0.84-m f/3.5 reflector +
    CMO.
F52 Pan-STARRS 2, Haleakala.  Observers J. Herman, T. Lowe, P. Minguez, A.
    Schultz, I. Smith.  Measurers K. Chambers, T. de Boer, J. Fairlamb, H.
    Gao, M. Huber, C.-C. Lin, E. Magnier, Y. Ramanjooloo, R. Wainscoat, R.
    Weryk.  1.8-m Ritchey-Chretien + CCD.
I93 St Pardon de Conques.  Observer F. Losse.  0.40-m f/3.7 reflector + CMO.
J95 Great Shefford.  Observer P. Birtwhistle.  0.41-m f/6.3 Schmidt-Cassegrain
    + CCD.
L01 Visnjan Observatory, Tican.  Observers K. Korlevic, L. Poropat.  Measurer
    K. Korlevic.  1.0-m f/2.9 reflector + CCD.
M49 IAS Remote Observatory, Hakos.  Observers D. Husar, M. Junius, L. Demetz,
    P. Ditz, R. Hellot, T. Steinbach.  Measurer D. Husar.  0.25-m f/4.5
    reflector + CMO.
U52 Shasta Valley Observatory, Grenada.  Observers J. E. Rogers, B. Haeusler.
    Measurers J. E. Rogers, D. Parrott.  0.30-m f/5.2 Helin Telescope + CCD.
V28 Deep Sky West Observatory, Rowe.  Observers R. Reszelewski, M. Zolnowski,
    M. Gedek, K. Zukowski, P. Baginska.  Measurer R. Reszelewski.  0.28-m
    f/2.2 reflector + CMO.
Z84 Calar Alto-Schmidt.  Observers M. Micheli, R. Kresken.  Measurers R.
    Kresken, M. Micheli, F. Ocana, L. Conversi.  0.8-m f/3 Schmidt + CCD.
Orbital elements:
2024 NB1                                                 Earth MOID = 0.0094 AU
Epoch 2024 Mar. 31.0 TT = JDT 2460400.5                 Bell                    
M  49.08226              (2000.0)            P               Q                  
n   1.27738706     Peri.    4.69608     -0.35437456     -0.88143397             
a   0.8412422      Node   106.32118     +0.84699722     -0.44405590             
e   0.2208535      Incl.   18.98675     +0.39625041     +0.16089909             
P   0.77           H   23.75          G   0.15           U   6                  
Residuals in seconds of arc
240703 F52  0.0   0.1+    240704 U52  0.3-  0.2-    240705 I93  0.2-  0.7+
240703 F52  0.0   0.1-    240704 U52  0.4-  0.8+    240705 106  0.3-  0.1+
240703 F52  0.0   0.0     240704 F52  0.1+  0.5-    240705 106  0.0   0.1-
240704 J95  0.2-  0.2+    240704 F52  0.0   0.0     240705 106  0.2+  0.2-
240704 J95  0.3+  0.6-    240704 F52  0.1+  0.1+    240705 106  0.1-  0.3-
240704 J95  0.3+  0.2-    240705 L01  0.3-  0.2+    240705 204  0.0   0.0
240704 Z84  0.1-  0.2-    240705 L01  0.4-  0.0     240705 204  0.3+  0.4-
240704 Z84  0.1-  0.0     240705 L01  0.3-  0.4-    240705 M49  0.2+  0.2-
240704 Z84  0.2-  0.1-    240705 L01  0.1+  0.0     240705 M49  0.1-  0.2+
240704 V28  0.6+  0.3+    240705 L01  0.1-  0.2+    240705 M49  0.5-  0.4-
240704 V28  0.3+  0.4+    240705 I93  0.0   0.1+
240704 U52  0.5-  0.3-    240705 I93  0.1-  0.1+
Ephemeris:
2024 NB1                 a,e,i = 0.84, 0.22, 19                  q = 0.6555
Date    TT    R. A. (2000) Decl.     Delta      r    Elong.  Phase     V
2024 06 05    22 37 33.3 +47 37 55   0.1863  0.9863    76.0    93.4    23.4
...
2024 06 20    22 58 30.9 +40 07 31   0.1138  1.0128    85.1    88.5    22.2
...
2024 06 28    23 22 28.5 +29 51 07   0.07453 1.0214    91.6    84.2    21.1
...
2024 07 04    23 54 39.1 +11 05 24   0.04878 1.0253    98.8    78.5    20.0
2024 07 05    00 02 11.6 +05 59 16   0.04540 1.0257   100.2    77.3    19.8
2024 07 06    00 10 38.9 +00 06 51   0.04248 1.0261   101.6    76.1    19.6
...
2024 07 12    01 31 55.1 -44 37 28   0.03965 1.0270   104.2    73.7    19.4
...
2024 07 20    05 20 44.4 -70 35 44   0.06869 1.0248    95.3    80.9    20.8
...
2024 08 04    08 45 29.8 -66 46 59   0.1422  1.0099    84.1    87.9    22.6
M. P. C. Staff               (C) Copyright 2024 MPC           M.P.E.C. 2024-N62
    
    
More information about the Iaude
mailing list